Location: Newark
(34.5992°S, 58.3747°W)
Time: 20:01:20
(UTC+00:00)

STARLINK 1040 - Pass Details

Date: 08 December 2019
Orbit: 338 x 344 km, 53.0° (Epoch: 18 January)

Event Time Altitude Azimuth Distance (km) Brightness Sun altitude
Rises 23:59:33 0° 240° (WSW) 2,153 8.7 -11.6°
Reaches altitude 10° 00:01:51 10° 257° (WSW) 1,307 6.6 -12.0°
Maximum altitude 00:04:06 20° 308° (NW) 869 4.8 -12.4°
Enters shadow 00:06:05 11° 355° (N) 1,218 5.1 -12.7°
